Theta_e
286 286 286 285 285 285 284 284 284 283 283 283 282 282 282 282 282 282 281 281 280 280 279 279 279 279 280 279 279 279 278 277 277 277 277 277 277 276 278 277 277 277
285 285 286 285 284 284 284 284 283 283 282 282 282 282 281 281 281 281 280 280 280 279 279 278 278 278 278 278 278 278 277 277 276 279 277 276 277 276 277 276 276 276
285 284 285 284 284 284 283 283 283 282 282 281 281 281 281 281 280 280 280 279 279 278 278 278 278 278 278 277 277 278 277 276 276 276 277 276 276 276 276 276 276 276
284 285 285 285 284 283 283 282 281 281 281 280 280 280 281 281 280 279 279 279 278 278 277 277 277 277 277 277 277 276 276 276 276 276 276 276 276 276 276 276 276 276
284 284 284 284 284 283 282 282 281 281 280 280 280 280 280 279 278 278 278 277 277 277 277 277 277 277 277 276 276 276 275 276 275 275 275 275 275 276 276 276 275 275
283 284 284 284 283 282 282 282 281 280 280 279 279 279 279 279 278 278 277 277 277 277 276 276 276 276 276 276 275 275 275 275 275 275 275 275 274 275 276 275 274 274
283 283 283 283 282 282 282 281 281 280 280 279 279 278 278 278 277 277 277 277 276 276 276 276 275 275 276 275 275 274 274 275 274 274 274 274 274 274 274 274 274 274
282 282 282 282 281 281 281 280 280 280 279 278 278 278 278 277 277 277 276 276 276 276 275 275 275 275 275 275 274 274 274 274 274 274 274 273 273 273 273 273 273 273
282 281 281 281 280 280 280 280 279 278 278 278 278 277 277 277 276 276 276 276 275 275 275 275 274 274 274 274 274 274 273 273 274 273 273 272 272 272 272 272 272 272
281 281 280 280 280 280 279 279 278 278 278 278 277 276 276 276 276 276 275 275 275 274 274 274 274 274 274 274 273 273 273 273 273 272 272 272 272 271 271 271 270 270
281 280 280 279 279 279 278 277 277 277 277 277 276 276 275 275 275 275 275 274 274 274 273 273 273 273 273 273 272 272 272 272 272 272 271 271 271 271 271 271 270 270
280 279 279 279 278 278 277 277 276 276 276 276 276 275 274 275 274 274 274 274 273 273 273 273 273 273 272 272 271 271 271 271 271 271 271 270 270 270 270 270 270 270
280 279 279 278 278 277 276 276 276 276 275 275 275 274 274 273 273 273 273 273 272 272 272 272 272 271 270 270 270 269 270 270 270 270 270 270 270 270 270 270 270 270
280 279 279 278 278 276 276 275 275 275 275 274 274 273 273 273 272 272 272 272 271 271 271 271 270 270 269 269 269 269 269 270 270 270 270 270 270 270 270 270 271 271
280 279 278 278 277 276 275 275 274 274 274 273 273 273 273 272 272 272 271 271 270 270 270 270 270 270 269 269 268 269 269 269 269 269 270 269 270 270 271 272 272 273
279 278 277 277 276 275 275 274 274 273 273 272 272 272 272 271 271 271 270 270 269 269 270 270 270 270 272 274 272 269 269 269 269 270 270 270 270 271 272 273 273 273
278 277 276 276 276 275 274 274 273 273 272 272 271 271 270 270 270 270 269 269 269 269 269 269 270 270 274 275 276 275 271 269 269 270 270 271 272 272 272 273 274 274
277 276 276 275 275 274 274 273 273 272 272 271 270 269 269 269 269 269 269 269 269 269 269 269 269 272 275 276 277 277 275 270 271 271 272 273 273 273 273 273 273 273
277 276 275 275 274 274 273 273 272 271 270 269 269 269 268 268 269 269 269 269 269 269 269 269 269 274 276 277 277 277 278 276 274 274 273 273 274 274 273 273 273 272
276 276 275 275 274 273 273 272 271 271 270 269 268 268 268 269 269 269 269 269 269 269 269 270 269 273 276 277 277 277 278 278 275 274 274 274 274 274 273 272 272 271
276 276 275 274 273 273 272 271 271 270 269 269 268 268 268 268 267 267 268 268 268 269 269 269 269 274 276 276 276 277 277 277 275 274 274 273 273 272 272 272 272 272
276 275 275 273 272 271 271 271 270 270 269 268 268 267 267 267 268 268 267 268 269 269 269 268 269 274 275 275 276 277 277 275 274 274 272 272 271 272 272 273 273 273
276 275 274 272 272 271 270 270 270 269 268 268 267 267 267 267 267 267 268 268 269 268 268 268 268 272 275 275 276 277 276 274 273 272 272 272 272 272 272 272 273 273
276 275 274 272 271 271 271 271 270 269 268 268 267 266 267 267 268 268 268 268 268 268 268 267 267 270 274 275 275 276 276 273 273 272 271 271 271 272 272 272 273 275
275 274 274 272 271 271 271 270 269 268 268 268 268 268 267 268 268 267 267 267 268 267 269 267 267 269 273 274 275 276 275 273 272 270 270 271 271 271 272 272 273 274
275 274 274 272 271 271 270 269 269 267 267 267 267 267 267 267 267 267 266 266 267 267 268 268 267 267 269 274 275 276 276 273 271 271 270 270 271 271 271 272 273 272
Wind_Speed
13 13 14 13 13 12 13 13 12 13 12 11 11 11 11 9 9 10 9 8 7 7 6 6 6 5 5 5 5 4 3 3 2 2 3 3 3 3 4 4 4 5
15 14 11 11 10 10 11 13 13 13 12 12 10 10 8 9 9 10 9 8 7 7 7 6 6 6 6 5 4 5 3 3 3 2 3 3 4 3 4 4 4 4
13 13 14 16 16 16 14 11 11 11 11 11 9 9 9 9 10 8 9 9 8 8 7 6 6 6 6 5 5 4 4 3 3 3 3 3 3 4 4 3 3 4
15 16 15 13 11 13 12 12 11 10 9 10 11 10 10 9 10 10 9 9 8 8 7 6 6 6 6 6 5 5 4 3 3 3 3 3 3 4 4 3 4 4
15 14 12 11 9 10 11 14 14 13 13 12 10 11 11 11 11 10 10 9 9 8 7 7 6 6 6 6 5 5 3 4 3 3 4 4 4 4 4 4 3 4
10 11 10 10 10 11 13 14 14 14 13 13 13 11 11 12 12 11 11 10 9 9 8 7 7 6 7 6 6 5 5 5 4 4 4 5 4 3 3 3 2 3
13 11 12 10 10 11 12 11 11 13 13 12 11 12 12 12 12 12 11 10 10 9 9 8 8 7 7 6 6 5 5 4 4 4 5 4 3 4 2 2 2 3
12 10 10 9 11 11 12 11 11 12 12 12 14 12 13 13 12 11 10 11 10 9 9 8 8 8 7 7 6 6 5 4 5 5 4 4 3 4 2 2 2 3
11 10 10 10 11 11 12 11 11 10 11 14 13 12 10 12 12 12 11 11 10 10 10 9 9 8 7 7 6 6 6 5 5 5 4 4 4 4 3 3 4 4
13 12 12 12 12 11 11 9 9 10 10 11 12 12 13 10 11 12 11 12 11 11 10 9 9 8 7 7 7 6 6 6 5 4 4 4 4 4 4 4 4 5
14 13 14 14 13 10 10 9 9 10 10 11 11 12 12 11 10 10 11 11 11 12 11 10 9 9 8 7 6 6 6 5 5 4 4 5 5 5 5 5 5 5
13 12 14 15 13 12 12 11 10 10 11 9 12 13 11 11 12 11 11 11 10 10 9 9 9 9 8 8 7 6 5 4 4 4 5 5 5 5 5 5 5 6
14 15 14 14 14 12 11 11 11 10 10 11 10 11 12 11 10 10 8 9 9 8 9 9 8 7 7 6 6 6 5 5 5 5 5 5 5 6 6 6 6 6
15 13 13 14 12 11 12 12 11 11 11 9 10 11 11 11 11 10 9 8 8 8 7 7 8 7 6 6 6 6 5 5 5 5 6 6 6 6 7 7 7 7
12 11 11 12 13 13 13 13 13 12 10 10 10 9 8 9 9 10 11 10 8 9 9 7 7 7 6 7 7 6 6 6 6 6 6 6 6 7 7 7 7 7
12 12 12 13 13 15 15 14 13 13 12 11 11 10 10 10 10 10 10 11 11 9 8 6 6 5 9 14 11 7 7 5 4 4 6 7 7 7 7 7 8 8
12 13 13 15 15 13 12 13 14 12 12 11 11 10 11 10 10 11 10 10 11 10 9 7 6 6 14 14 14 15 9 7 6 6 7 8 7 7 7 7 7 7
14 14 14 14 13 14 14 13 13 13 13 12 11 11 9 8 10 10 10 10 7 7 8 7 7 11 15 15 15 15 13 8 7 7 7 7 7 7 7 7 7 7
13 14 14 13 14 14 13 13 14 13 13 12 13 10 9 11 10 10 8 7 8 9 9 8 7 13 15 15 14 14 15 13 7 7 7 7 7 7 8 7 6 7
13 14 15 14 13 13 14 14 15 15 13 11 10 10 11 9 6 7 8 8 8 9 8 8 8 12 15 15 13 14 14 13 5 7 7 7 8 6 5 7 8 7
15 15 15 14 14 15 15 15 15 13 13 12 12 13 13 13 13 11 10 10 9 8 7 7 6 13 14 14 13 14 15 13 6 7 6 6 4 4 7 8 8 8
16 15 15 15 15 15 16 16 15 15 16 12 11 10 8 8 8 8 11 11 10 9 8 6 6 14 13 13 14 14 15 8 5 7 6 3 3 7 7 7 7 8
16 16 16 16 16 17 17 17 17 15 13 12 13 12 12 11 12 11 10 9 8 7 7 7 6 11 13 14 14 14 11 5 5 3 4 6 6 6 6 7 7 8
15 16 17 17 17 19 19 16 14 12 14 13 15 15 13 12 8 8 8 6 9 9 8 8 7 9 14 13 13 14 11 5 4 5 4 4 5 6 5 6 8 13
14 15 16 17 18 17 16 17 16 15 12 11 11 11 12 12 10 8 7 6 7 8 13 9 7 8 13 13 14 14 10 5 5 3 5 5 5 6 6 6 7 7
13 16 16 17 17 15 13 14 12 11 13 13 11 11 11 10 11 8 9 8 8 8 8 9 8 6 8 14 14 14 14 6 4 6 6 6 5 5 6 5 5 6
Wind_Direction
196 195 191 187 190 184 178 179 181 178 180 177 178 178 180 175 164 168 168 162 164 161 161 156 149 144 137 128 128 124 136 152 152 161 186 187 215 214 230 238 237 226
202 199 196 187 182 183 185 180 177 177 178 178 176 168 165 156 167 163 162 160 157 157 154 150 148 142 136 131 130 130 134 137 158 164 183 204 220 215 233 235 237 240
199 199 197 194 191 184 177 174 173 176 174 173 162 163 160 160 156 157 155 154 153 153 153 151 146 145 138 135 135 139 150 158 176 188 189 216 219 222 232 225 234 235
206 203 202 202 191 181 171 165 171 169 162 162 170 163 158 159 152 152 151 152 151 153 154 150 150 143 137 136 133 142 152 170 185 189 214 228 225 223 233 216 232 240
207 206 203 200 196 180 172 173 172 171 170 166 154 157 152 151 152 152 153 155 153 155 153 153 147 144 140 138 141 149 161 176 191 190 208 226 229 220 230 209 222 234
210 209 203 197 193 185 185 184 175 167 164 161 164 154 157 155 155 157 157 157 159 155 156 153 150 149 147 145 145 158 169 180 197 193 212 221 227 213 207 210 229 250
206 201 203 193 189 195 190 186 177 170 167 161 149 164 156 158 159 160 160 159 157 160 158 158 154 155 152 149 153 164 172 183 195 195 208 223 211 233 218 213 225 239
202 198 197 192 192 193 195 185 179 176 164 156 165 161 161 160 160 160 159 157 157 158 158 156 158 155 155 153 161 163 174 174 186 193 207 217 209 224 210 209 228 249
192 194 192 195 195 195 196 187 180 172 168 164 162 159 163 162 161 160 160 157 157 159 157 160 159 157 157 155 161 165 173 183 184 192 198 205 218 228 227 226 241 249
190 189 185 188 195 196 198 191 180 173 170 168 161 158 162 163 160 159 158 160 159 160 161 159 158 155 155 156 158 163 169 170 176 185 199 211 222 229 224 229 242 253
191 184 187 188 190 185 191 185 184 175 174 169 162 164 163 157 161 161 160 161 165 165 161 159 156 153 153 155 158 162 171 169 180 189 203 213 220 223 237 236 242 242
191 187 188 186 184 181 182 179 179 180 175 172 169 164 161 165 162 166 167 165 160 158 154 151 151 154 157 159 157 154 158 173 176 193 208 217 223 227 232 239 239 242
189 191 185 182 182 179 169 170 176 178 176 174 172 163 163 164 166 160 159 152 150 148 153 151 148 147 148 148 147 151 161 176 188 203 216 220 228 234 238 237 241 240
193 185 180 180 175 167 167 169 169 172 176 169 164 167 168 166 162 156 149 146 149 147 143 139 140 143 146 149 152 159 168 183 196 208 221 226 227 236 238 241 237 238
181 178 178 172 168 164 166 169 170 169 166 166 168 165 163 160 155 151 148 145 142 144 143 142 140 156 160 159 161 169 170 186 196 203 218 222 233 240 241 239 242 247
177 174 173 170 168 171 171 168 166 167 166 167 169 165 159 157 154 154 153 151 148 146 141 139 156 154 177 179 177 170 175 180 192 196 211 226 234 238 242 244 249 253
172 176 170 175 175 170 167 166 168 166 166 167 165 163 160 158 154 152 153 152 151 151 151 155 163 172 184 188 188 187 180 183 185 202 210 223 229 238 245 250 257 264
177 172 174 176 170 173 169 168 163 164 167 166 162 160 159 151 156 158 152 153 147 141 152 162 168 182 184 187 191 196 188 179 190 201 213 222 229 235 245 258 264 268
174 174 175 172 176 170 166 163 166 167 166 164 168 162 152 161 161 157 152 139 145 152 161 168 169 184 185 187 192 197 202 195 189 206 215 223 230 238 247 254 266 274
174 173 176 176 170 166 165 168 169 174 169 163 154 156 162 159 141 144 149 149 157 159 160 166 170 186 187 189 192 199 205 208 185 204 218 228 231 229 240 265 269 266
177 176 176 172 170 168 169 172 173 166 164 165 164 167 166 167 164 161 165 162 163 162 156 164 170 183 186 188 193 201 205 206 191 203 212 205 210 259 262 257 261 263
176 177 174 171 170 171 172 174 173 171 168 164 160 160 159 154 162 162 160 163 164 162 154 150 163 180 183 189 197 201 203 204 194 198 195 213 222 235 247 254 259 264
178 176 175 173 173 173 177 176 173 171 168 162 160 164 163 169 168 168 167 159 153 146 144 147 161 182 186 191 199 202 203 192 190 189 209 213 225 230 245 257 262 265
179 176 175 176 175 181 180 177 171 166 168 168 166 165 170 170 157 154 157 152 154 157 157 152 157 181 186 192 198 200 200 182 198 196 202 219 226 231 238 244 254 267
176 177 178 178 182 182 176 173 173 172 163 163 168 166 167 165 162 144 133 140 155 153 165 158 148 174 185 191 196 201 202 174 182 184 215 224 230 241 241 251 250 258
177 179 180 180 181 175 174 172 162 158 167 168 168 166 162 161 159 152 140 148 152 152 171 160 157 162 187 192 196 200 200 178 181 202 217 219 237 245 250 248 264 278